Time,TemperatureF,DewpointF,PressureIn,WindDirection,WindDirectionDegrees,WindSpeedMPH,WindSpeedGustMPH,Humidity,HourlyPrecipIn,Conditions,Clouds,dailyrainin,SoftwareType,DateUTC
2013-08-18 00:00:00,60.5,58.8,30.08,ENE,60,1.0,9.0,94,0.00,,,0.02,Wunderground v.1.15,2013-08-18 04:00:00,
2013-08-18 00:01:00,60.5,58.8,30.08,ENE,60,1.0,9.0,94,0.00,,,0.00,Wunderground v.1.15,2013-08-18 04:01:00,
2013-08-18 00:02:00,60.5,58.8,30.08,NE,52,1.0,9.0,94,0.00,,,0.00,Wunderground v.1.15,2013-08-18 04:02:00,
2013-08-18 00:03:00,60.5,58.8,30.08,NE,42,1.0,9.0,94,0.00,,,0.00,Wunderground v.1.15,2013-08-18 04:03:00,
2013-08-18 00:06:00,60.5,58.8,30.08,NE,38,1.0,9.0,94,0.00,,,0.00,Wunderground v.1.15,2013-08-18 04:06:00,
2013-08-18 00:11:00,60.5,58.8,30.08,ENE,59,1.0,9.0,94,0.00,,,0.00,Wunderground v.1.15,2013-08-18 04:11:00,
2013-08-18 00:13:00,60.5,58.5,30.08,ENE,57,1.0,9.0,93,0.00,,,0.00,Wunderground v.1.15,2013-08-18 04:13:00,
2013-08-18 00:19:00,60.5,58.5,30.08,NE,52,1.0,9.0,93,0.00,,,0.00,Wunderground v.1.15,2013-08-18 04:19:00,
2013-08-18 00:24:00,60.5,58.5,30.08,NNE,17,1.0,9.0,93,0.00,,,0.00,Wunderground v.1.15,2013-08-18 04:24:00,
2013-08-18 00:30:00,60.5,58.5,30.08,NNE,17,0.0,9.0,93,0.00,,,0.00,Wunderground v.1.15,2013-08-18 04:30:00,
2013-08-18 00:36:00,60.5,58.5,30.08,NW,323,1.0,7.0,93,0.00,,,0.00,Wunderground v.1.15,2013-08-18 04:36:00,
2013-08-18 00:42:00,60.5,58.5,30.08,North,5,0.0,7.0,93,0.00,,,0.00,Wunderground v.1.15,2013-08-18 04:42:00,
2013-08-18 00:48:00,60.5,58.5,30.08,North,5,0.0,7.0,93,0.00,,,0.00,Wunderground v.1.15,2013-08-18 04:48:00,
2013-08-18 00:53:00,60.4,58.7,30.08,North,5,0.0,7.0,94,0.00,,,0.00,Wunderground v.1.15,2013-08-18 04:53:00,
2013-08-18 00:59:00,60.4,58.7,30.08,NE,46,1.0,7.0,94,0.00,,,0.00,Wunderground v.1.15,2013-08-18 04:59:00,
2013-08-18 01:04:00,60.4,58.7,30.08,NE,46,1.0,6.0,94,0.00,,,0.00,Wunderground v.1.15,2013-08-18 05:04:00,
2013-08-18 01:10:00,60.4,58.7,30.08,NE,46,0.0,6.0,94,0.00,,,0.00,Wunderground v.1.15,2013-08-18 05:10:00,
2013-08-18 01:15:00,60.4,58.4,30.07,NE,46,1.0,6.0,93,0.00,,,0.00,Wunderground v.1.15,2013-08-18 05:15:00,
2013-08-18 01:20:00,60.4,58.4,30.07,NE,46,1.0,6.0,93,0.00,,,0.00,Wunderground v.1.15,2013-08-18 05:20:00,
2013-08-18 01:26:00,60.4,58.4,30.07,NE,46,0.0,6.0,93,0.00,,,0.00,Wunderground v.1.15,2013-08-18 05:26:00,
2013-08-18 01:32:00,60.4,58.4,30.08,NE,46,0.0,4.0,93,0.00,,,0.00,Wunderground v.1.15,2013-08-18 05:32:00,
2013-08-18 01:38:00,60.4,58.4,30.08,NE,46,0.0,4.0,93,0.00,,,0.00,Wunderground v.1.15,2013-08-18 05:38:00,
2013-08-18 01:43:00,60.4,58.4,30.08,NE,46,0.0,4.0,93,0.00,,,0.00,Wunderground v.1.15,2013-08-18 05:43:00,
2013-08-18 01:48:00,60.2,58.5,30.08,NE,46,0.0,4.0,94,0.00,,,0.00,Wunderground v.1.15,2013-08-18 05:48:00,
2013-08-18 01:54:00,60.2,58.5,30.08,NE,46,0.0,4.0,94,0.00,,,0.00,Wunderground v.1.15,2013-08-18 05:54:00,
2013-08-18 01:59:00,60.2,58.5,30.08,NE,46,0.0,4.0,94,0.00,,,0.00,Wunderground v.1.15,2013-08-18 05:59:00,
2013-08-18 02:05:00,60.2,58.8,30.08,NE,46,0.0,4.0,95,0.00,,,0.00,Wunderground v.1.15,2013-08-18 06:05:00,
2013-08-18 02:11:00,60.2,58.8,30.08,NE,46,0.0,4.0,95,0.00,,,0.00,Wunderground v.1.15,2013-08-18 06:11:00,
2013-08-18 02:16:00,60.2,58.8,30.07,NE,46,0.0,4.0,95,0.00,,,0.00,Wunderground v.1.15,2013-08-18 06:16:00,
2013-08-18 02:22:00,60.2,58.8,30.07,NE,46,0.0,4.0,95,0.00,,,0.00,Wunderground v.1.15,2013-08-18 06:22:00,
2013-08-18 02:28:00,60.2,58.8,30.07,NE,46,0.0,4.0,95,0.00,,,0.00,Wunderground v.1.15,2013-08-18 06:28:00,
2013-08-18 02:33:00,60.2,58.8,30.07,NE,46,0.0,3.0,95,0.00,,,0.00,Wunderground v.1.15,2013-08-18 06:33:00,
2013-08-18 02:39:00,60.2,58.8,30.07,NE,36,0.0,3.0,95,0.00,,,0.00,Wunderground v.1.15,2013-08-18 06:39:00,
2013-08-18 02:45:00,60.2,58.8,30.07,NE,44,1.0,3.0,95,0.00,,,0.00,Wunderground v.1.15,2013-08-18 06:45:00,
2013-08-18 02:51:00,60.2,58.8,30.07,NE,44,0.0,3.0,95,0.00,,,0.00,Wunderground v.1.15,2013-08-18 06:51:00,
2013-08-18 02:56:00,60.2,58.8,30.07,NE,44,0.0,3.0,95,0.00,,,0.00,Wunderground v.1.15,2013-08-18 06:56:00,
2013-08-18 03:02:00,60.1,58.7,30.06,NE,44,0.0,5.0,95,0.00,,,0.00,Wunderground v.1.15,2013-08-18 07:02:00,
2013-08-18 03:08:00,60.1,58.7,30.06,NE,44,0.0,5.0,95,0.00,,,0.00,Wunderground v.1.15,2013-08-18 07:08:00,
2013-08-18 03:13:00,60.2,58.8,30.06,NE,44,0.0,5.0,95,0.00,,,0.00,Wunderground v.1.15,2013-08-18 07:13:00,
2013-08-18 03:19:00,60.2,59.1,30.08,NE,44,0.0,5.0,96,0.00,,,0.00,Wunderground v.1.15,2013-08-18 07:19:00,
2013-08-18 03:25:00,60.2,59.1,30.08,NE,44,0.0,5.0,96,0.00,,,0.00,Wunderground v.1.15,2013-08-18 07:25:00,
2013-08-18 03:31:00,60.1,59.0,30.07,NE,44,0.0,5.0,96,0.00,,,0.00,Wunderground v.1.15,2013-08-18 07:31:00,
2013-08-18 03:36:00,60.1,59.0,30.07,NE,44,0.0,3.0,96,0.00,,,0.00,Wunderground v.1.15,2013-08-18 07:36:00,
2013-08-18 03:42:00,60.1,59.0,30.07,NE,44,0.0,3.0,96,0.00,,,0.00,Wunderground v.1.15,2013-08-18 07:42:00,
2013-08-18 03:47:00,60.1,59.0,30.06,NE,44,0.0,3.0,96,0.00,,,0.00,Wunderground v.1.15,2013-08-18 07:47:00,
2013-08-18 03:53:00,60.1,59.0,30.06,NE,44,0.0,3.0,96,0.00,,,0.00,Wunderground v.1.15,2013-08-18 07:53:00,
2013-08-18 03:59:00,60.1,59.0,30.06,NE,44,0.0,3.0,96,0.00,,,0.00,Wunderground v.1.15,2013-08-18 07:59:00,
2013-08-18 04:04:00,60.1,59.0,30.06,NE,44,0.0,3.0,96,0.00,,,0.00,Wunderground v.1.15,2013-08-18 08:04:00,
2013-08-18 04:10:00,60.1,59.0,30.06,NE,44,0.0,3.0,96,0.00,,,0.00,Wunderground v.1.15,2013-08-18 08:10:00,
2013-08-18 04:16:00,59.9,58.8,30.06,NE,44,0.0,3.0,96,0.00,,,0.00,Wunderground v.1.15,2013-08-18 08:16:00,
2013-08-18 04:21:00,59.9,58.8,30.06,NE,44,0.0,3.0,96,0.00,,,0.00,Wunderground v.1.15,2013-08-18 08:21:00,
2013-08-18 04:27:00,60.1,59.0,30.06,NE,44,0.0,3.0,96,0.00,,,0.00,Wunderground v.1.15,2013-08-18 08:27:00,
2013-08-18 04:33:00,60.1,59.0,30.05,NE,44,0.0,0.0,96,0.00,,,0.00,Wunderground v.1.15,2013-08-18 08:33:00,
2013-08-18 04:38:00,59.9,58.8,30.05,NE,44,0.0,0.0,96,0.00,,,0.00,Wunderground v.1.15,2013-08-18 08:38:00,
2013-08-18 04:44:00,59.9,58.8,30.05,NE,44,0.0,0.0,96,0.00,,,0.00,Wunderground v.1.15,2013-08-18 08:44:00,
2013-08-18 04:50:00,59.9,58.8,30.06,NE,44,0.0,0.0,96,0.00,,,0.00,Wunderground v.1.15,2013-08-18 08:50:00,
2013-08-18 04:56:00,59.8,58.9,30.06,NE,44,0.0,0.0,97,0.00,,,0.00,Wunderground v.1.15,2013-08-18 08:56:00,
2013-08-18 05:01:00,59.8,58.9,30.06,NE,44,0.0,1.0,97,0.00,,,0.00,Wunderground v.1.15,2013-08-18 09:01:00,
2013-08-18 05:07:00,59.8,58.9,30.06,NE,44,0.0,1.0,97,0.00,,,0.00,Wunderground v.1.15,2013-08-18 09:07:00,
2013-08-18 05:12:00,59.8,58.9,30.06,NE,44,0.0,1.0,97,0.00,,,0.00,Wunderground v.1.15,2013-08-18 09:12:00,
2013-08-18 05:18:00,59.8,58.9,30.07,NE,44,0.0,1.0,97,0.00,,,0.00,Wunderground v.1.15,2013-08-18 09:18:00,
2013-08-18 05:24:00,59.8,58.9,30.07,NE,44,0.0,1.0,97,0.00,,,0.00,Wunderground v.1.15,2013-08-18 09:24:00,
2013-08-18 05:30:00,59.8,58.9,30.08,NE,44,0.0,1.0,97,0.00,,,0.00,Wunderground v.1.15,2013-08-18 09:30:00,
2013-08-18 05:36:00,59.8,58.9,30.08,NE,44,0.0,3.0,97,0.00,,,0.00,Wunderground v.1.15,2013-08-18 09:36:00,
2013-08-18 05:41:00,59.8,58.9,30.08,NE,54,0.0,3.0,97,0.00,,,0.00,Wunderground v.1.15,2013-08-18 09:41:00,
2013-08-18 05:47:00,59.8,58.9,30.07,NE,54,0.0,3.0,97,0.00,,,0.00,Wunderground v.1.15,2013-08-18 09:47:00,
2013-08-18 05:53:00,59.9,59.0,30.07,NE,54,0.0,3.0,97,0.00,,,0.00,Wunderground v.1.15,2013-08-18 09:53:00,
2013-08-18 05:58:00,59.9,59.0,30.07,NE,54,0.0,3.0,97,0.00,,,0.00,Wunderground v.1.15,2013-08-18 09:58:00,
2013-08-18 06:03:00,59.9,59.0,30.08,NE,54,0.0,5.0,97,0.00,,,0.00,Wunderground v.1.15,2013-08-18 10:03:00,
2013-08-18 06:08:00,59.9,59.0,30.08,NE,54,0.0,5.0,97,0.00,,,0.00,Wunderground v.1.15,2013-08-18 10:08:00,
2013-08-18 06:14:00,59.9,59.0,30.08,ESE,113,0.0,5.0,97,0.00,,,0.00,Wunderground v.1.15,2013-08-18 10:14:00,
2013-08-18 06:19:00,59.8,58.9,30.08,SE,134,0.0,5.0,97,0.00,,,0.00,Wunderground v.1.15,2013-08-18 10:19:00,
2013-08-18 06:25:00,59.8,58.9,30.08,SE,134,0.0,5.0,97,0.00,,,0.00,Wunderground v.1.15,2013-08-18 10:25:00,
2013-08-18 06:30:00,59.8,58.9,30.09,SE,134,0.0,5.0,97,0.00,,,0.00,Wunderground v.1.15,2013-08-18 10:30:00,
2013-08-18 06:36:00,59.8,58.9,30.09,SE,134,0.0,3.0,97,0.00,,,0.00,Wunderground v.1.15,2013-08-18 10:36:00,
2013-08-18 06:41:00,59.8,58.9,30.09,SE,134,0.0,3.0,97,0.00,,,0.00,Wunderground v.1.15,2013-08-18 10:41:00,
2013-08-18 06:47:00,59.8,58.9,30.09,SE,134,0.0,3.0,97,0.00,,,0.00,Wunderground v.1.15,2013-08-18 10:47:00,
2013-08-18 06:53:00,59.8,58.9,30.09,SE,134,0.0,3.0,97,0.00,,,0.00,Wunderground v.1.15,2013-08-18 10:53:00,
2013-08-18 06:58:00,59.8,58.9,30.09,ESE,119,0.0,3.0,97,0.00,,,0.00,Wunderground v.1.15,2013-08-18 10:58:00,
2013-08-18 07:04:00,59.8,58.9,30.09,ESE,114,0.0,2.0,97,0.00,,,0.00,Wunderground v.1.15,2013-08-18 11:04:00,
2013-08-18 07:09:00,59.8,58.9,30.09,ESE,114,0.0,2.0,97,0.00,,,0.00,Wunderground v.1.15,2013-08-18 11:09:00,
2013-08-18 07:15:00,59.8,58.9,30.09,ESE,114,0.0,2.0,97,0.00,,,0.00,Wunderground v.1.15,2013-08-18 11:15:00,
2013-08-18 07:21:00,59.9,59.0,30.09,ESE,114,0.0,2.0,97,0.00,,,0.00,Wunderground v.1.15,2013-08-18 11:21:00,
2013-08-18 07:26:00,59.9,59.0,30.09,ESE,114,0.0,2.0,97,0.00,,,0.00,Wunderground v.1.15,2013-08-18 11:26:00,
2013-08-18 07:32:00,59.9,59.0,30.10,ESE,114,0.0,2.0,97,0.00,,,0.00,Wunderground v.1.15,2013-08-18 11:32:00,
2013-08-18 07:37:00,59.9,59.0,30.10,ESE,114,0.0,2.0,97,0.00,,,0.01,Wunderground v.1.15,2013-08-18 11:37:00,
2013-08-18 07:43:00,60.1,59.2,30.10,NE,51,0.0,2.0,97,0.00,,,0.01,Wunderground v.1.15,2013-08-18 11:43:00,
2013-08-18 07:48:00,60.1,59.2,30.10,NE,51,0.0,2.0,97,0.00,,,0.01,Wunderground v.1.15,2013-08-18 11:48:00,
2013-08-18 07:54:00,60.1,59.2,30.10,NE,51,0.0,2.0,97,0.00,,,0.01,Wunderground v.1.15,2013-08-18 11:54:00,
2013-08-18 08:00:00,60.2,59.3,30.10,NE,51,0.0,2.0,97,0.00,,,0.01,Wunderground v.1.15,2013-08-18 12:00:00,
2013-08-18 08:05:00,60.4,59.5,30.10,ENE,62,0.0,3.0,97,0.00,,,0.01,Wunderground v.1.15,2013-08-18 12:05:00,
2013-08-18 08:11:00,60.4,59.5,30.10,ENE,62,0.0,3.0,97,0.00,,,0.01,Wunderground v.1.15,2013-08-18 12:11:00,
2013-08-18 08:17:00,60.4,59.5,30.11,ENE,62,0.0,3.0,97,0.00,,,0.01,Wunderground v.1.15,2013-08-18 12:17:00,
2013-08-18 08:22:00,60.4,59.5,30.11,ENE,62,1.0,1.0,97,0.00,,,0.01,Wunderground v.1.15,2013-08-18 12:22:00,
2013-08-18 08:28:00,60.5,59.6,30.11,ENE,62,0.0,3.0,97,0.00,,,0.01,Wunderground v.1.15,2013-08-18 12:28:00,
2013-08-18 08:34:00,60.7,59.8,30.11,ENE,67,0.0,3.0,97,0.00,,,0.01,Wunderground v.1.15,2013-08-18 12:34:00,
2013-08-18 08:39:00,60.7,59.8,30.11,ENE,67,0.0,3.0,97,0.00,,,0.01,Wunderground v.1.15,2013-08-18 12:39:00,
2013-08-18 08:45:00,60.5,59.6,30.12,SE,140,0.0,3.0,97,0.00,,,0.01,Wunderground v.1.15,2013-08-18 12:45:00,
2013-08-18 08:50:00,60.5,59.6,30.12,SE,140,0.0,3.0,97,0.00,,,0.01,Wunderground v.1.15,2013-08-18 12:50:00,
2013-08-18 08:56:00,60.5,59.6,30.12,SE,140,0.0,3.0,97,0.00,,,0.01,Wunderground v.1.15,2013-08-18 12:56:00,
2013-08-18 09:02:00,60.5,59.6,30.12,SE,140,0.0,2.0,97,0.00,,,0.01,Wunderground v.1.15,2013-08-18 13:02:00,
2013-08-18 09:08:00,60.7,59.8,30.12,SE,140,0.0,2.0,97,0.00,,,0.01,Wunderground v.1.15,2013-08-18 13:08:00,
2013-08-18 09:13:00,60.7,59.8,30.12,SE,140,0.0,2.0,97,0.00,,,0.02,Wunderground v.1.15,2013-08-18 13:13:00,
2013-08-18 09:19:00,60.9,60.0,30.11,SE,140,0.0,2.0,97,0.00,,,0.02,Wunderground v.1.15,2013-08-18 13:19:00,
2013-08-18 09:24:00,61.0,60.1,30.11,SE,140,0.0,2.0,97,0.00,,,0.02,Wunderground v.1.15,2013-08-18 13:24:00,
2013-08-18 09:30:00,61.3,60.4,30.11,SE,140,0.0,2.0,97,0.00,,,0.02,Wunderground v.1.15,2013-08-18 13:30:00,
2013-08-18 09:36:00,61.2,60.3,30.11,SE,140,0.0,2.0,97,0.00,,,0.02,Wunderground v.1.15,2013-08-18 13:36:00,
2013-08-18 09:41:00,61.0,59.9,30.11,SE,140,0.0,3.0,96,0.00,,,0.02,Wunderground v.1.15,2013-08-18 13:41:00,
2013-08-18 09:47:00,61.0,59.9,30.13,SE,140,0.0,2.0,96,0.00,,,0.02,Wunderground v.1.15,2013-08-18 13:47:00,
2013-08-18 09:52:00,61.0,59.9,30.13,SE,140,0.0,2.0,96,0.00,,,0.02,Wunderground v.1.15,2013-08-18 13:52:00,
2013-08-18 09:58:00,61.2,60.1,30.13,SE,140,0.0,2.0,96,0.00,,,0.02,Wunderground v.1.15,2013-08-18 13:58:00,
2013-08-18 10:03:00,61.3,60.2,30.13,SE,140,0.0,4.0,96,0.00,,,0.02,Wunderground v.1.15,2013-08-18 14:03:00,
2013-08-18 10:09:00,61.6,60.4,30.13,East,97,0.0,4.0,96,0.00,,,0.02,Wunderground v.1.15,2013-08-18 14:09:00,
2013-08-18 10:14:00,61.8,60.6,30.13,East,96,0.0,4.0,96,0.00,,,0.02,Wunderground v.1.15,2013-08-18 14:14:00,
2013-08-18 10:20:00,62.0,60.8,30.12,East,86,1.0,4.0,96,0.00,,,0.02,Wunderground v.1.15,2013-08-18 14:20:00,
2013-08-18 10:26:00,62.3,61.1,30.12,East,86,0.0,4.0,96,0.00,,,0.02,Wunderground v.1.15,2013-08-18 14:26:00,
2013-08-18 10:31:00,62.3,61.1,30.14,East,86,0.0,4.0,96,0.00,,,0.02,Wunderground v.1.15,2013-08-18 14:31:00,
2013-08-18 10:37:00,62.1,60.7,30.14,SE,137,0.0,3.0,95,0.00,,,0.02,Wunderground v.1.15,2013-08-18 14:37:00,
2013-08-18 10:43:00,62.1,60.7,30.14,SE,137,0.0,3.0,95,0.00,,,0.02,Wunderground v.1.15,2013-08-18 14:43:00,
2013-08-18 10:48:00,62.3,60.8,30.14,SE,137,0.0,3.0,95,0.00,,,0.02,Wunderground v.1.15,2013-08-18 14:48:00,
2013-08-18 10:54:00,62.6,61.1,30.14,SE,137,0.0,3.0,95,0.00,,,0.02,Wunderground v.1.15,2013-08-18 14:54:00,
2013-08-18 10:59:00,62.9,61.1,30.14,SE,137,0.0,3.0,94,0.00,,,0.02,Wunderground v.1.15,2013-08-18 14:59:00,
2013-08-18 11:05:00,63.4,61.9,30.13,SE,137,0.0,2.0,95,0.00,,,0.02,Wunderground v.1.15,2013-08-18 15:05:00,
2013-08-18 11:11:00,63.9,62.1,30.13,SE,137,0.0,2.0,94,0.00,,,0.02,Wunderground v.1.15,2013-08-18 15:11:00,
2013-08-18 11:17:00,64.0,61.9,30.13,SE,137,0.0,2.0,93,0.00,,,0.02,Wunderground v.1.15,2013-08-18 15:17:00,
2013-08-18 11:22:00,64.0,61.6,30.13,SE,137,0.0,2.0,92,0.00,,,0.02,Wunderground v.1.15,2013-08-18 15:22:00,
2013-08-18 11:28:00,64.3,61.9,30.13,ESE,110,0.0,2.0,92,0.00,,,0.02,Wunderground v.1.15,2013-08-18 15:28:00,
2013-08-18 11:34:00,64.7,62.3,30.13,NE,54,0.0,5.0,92,0.00,,,0.02,Wunderground v.1.15,2013-08-18 15:34:00,
2013-08-18 11:39:00,65.0,62.3,30.13,SSE,157,0.0,5.0,91,0.00,,,0.02,Wunderground v.1.15,2013-08-18 15:39:00,
2013-08-18 11:45:00,65.0,61.7,30.14,NE,53,1.0,5.0,89,0.00,,,0.02,Wunderground v.1.15,2013-08-18 15:45:00,
2013-08-18 11:50:00,64.8,61.5,30.14,SE,132,1.0,5.0,89,0.00,,,0.02,Wunderground v.1.15,2013-08-18 15:50:00,
2013-08-18 11:56:00,64.8,61.5,30.14,NE,45,1.0,5.0,89,0.00,,,0.02,Wunderground v.1.15,2013-08-18 15:56:00,
2013-08-18 12:01:00,65.0,61.7,30.14,NE,45,1.0,5.0,89,0.00,,,0.02,Wunderground v.1.15,2013-08-18 16:01:00,
2013-08-18 12:07:00,65.5,62.2,30.14,NE,56,1.0,5.0,89,0.00,,,0.02,Wunderground v.1.15,2013-08-18 16:07:00,
2013-08-18 12:12:00,65.3,62.0,30.14,ESE,103,1.0,5.0,89,0.00,,,0.02,Wunderground v.1.15,2013-08-18 16:12:00,
2013-08-18 12:18:00,65.8,62.5,30.14,ENE,60,1.0,5.0,89,0.00,,,0.02,Wunderground v.1.15,2013-08-18 16:18:00,
2013-08-18 12:23:00,66.3,62.6,30.14,ENE,61,1.0,5.0,88,0.00,,,0.02,Wunderground v.1.15,2013-08-18 16:23:00,
2013-08-18 12:29:00,66.8,61.8,30.14,NE,51,1.0,7.0,84,0.00,,,0.02,Wunderground v.1.15,2013-08-18 16:29:00,
2013-08-18 12:34:00,67.3,63.0,30.12,NE,38,1.0,7.0,86,0.00,,,0.02,Wunderground v.1.15,2013-08-18 16:34:00,
2013-08-18 12:40:00,68.4,64.0,30.12,East,87,1.0,7.0,86,0.00,,,0.02,Wunderground v.1.15,2013-08-18 16:40:00,
2013-08-18 12:45:00,69.1,63.7,30.12,SSE,164,1.0,7.0,83,0.00,,,0.02,Wunderground v.1.15,2013-08-18 16:45:00,
2013-08-18 12:51:00,69.6,63.2,30.12,South,172,1.0,7.0,80,0.00,,,0.02,Wunderground v.1.15,2013-08-18 16:51:00,
2013-08-18 12:58:00,69.9,63.4,30.12,SSE,159,1.0,7.0,80,0.00,,,0.02,Wunderground v.1.15,2013-08-18 16:58:00,
2013-08-18 13:03:00,69.9,63.8,30.11,NE,46,2.0,10.0,81,0.00,,,0.02,Wunderground v.1.15,2013-08-18 17:03:00,
2013-08-18 13:09:00,69.8,63.7,30.11,ENE,62,2.0,10.0,81,0.00,,,0.02,Wunderground v.1.15,2013-08-18 17:09:00,
2013-08-18 13:15:00,69.9,62.4,30.11,NE,47,2.0,10.0,77,0.00,,,0.02,Wunderground v.1.15,2013-08-18 17:15:00,
2013-08-18 13:20:00,69.6,63.2,30.11,NE,43,2.0,10.0,80,0.00,,,0.02,Wunderground v.1.15,2013-08-18 17:20:00,
2013-08-18 13:26:00,69.6,62.8,30.11,SSE,159,2.0,10.0,79,0.00,,,0.02,Wunderground v.1.15,2013-08-18 17:26:00,
2013-08-18 13:31:00,69.3,62.9,30.11,NE,53,2.0,10.0,80,0.00,,,0.02,Wunderground v.1.15,2013-08-18 17:31:00,
2013-08-18 13:37:00,69.4,63.3,30.11,East,85,2.0,9.0,81,0.00,,,0.02,Wunderground v.1.15,2013-08-18 17:37:00,
2013-08-18 13:43:00,70.4,64.6,30.11,NE,54,1.0,4.0,82,0.00,,,0.02,Wunderground v.1.15,2013-08-18 17:43:00,
2013-08-18 13:49:00,70.9,64.1,30.11,ESE,109,1.0,9.0,79,0.00,,,0.02,Wunderground v.1.15,2013-08-18 17:49:00,
2013-08-18 13:55:00,71.3,64.1,30.11,SSE,149,1.0,9.0,78,0.00,,,0.02,Wunderground v.1.15,2013-08-18 17:55:00,
2013-08-18 14:01:00,71.1,63.5,30.11,NE,36,1.0,9.0,77,0.00,,,0.02,Wunderground v.1.15,2013-08-18 18:01:00,
2013-08-18 14:07:00,71.6,63.6,30.11,ESE,122,1.0,7.0,76,0.00,,,0.02,Wunderground v.1.15,2013-08-18 18:07:00,
2013-08-18 14:13:00,72.3,64.7,30.11,SSE,154,0.0,7.0,77,0.00,,,0.02,Wunderground v.1.15,2013-08-18 18:13:00,
2013-08-18 14:18:00,72.1,64.1,30.09,NE,51,1.0,7.0,76,0.00,,,0.02,Wunderground v.1.15,2013-08-18 18:18:00,
2013-08-18 14:24:00,72.5,64.9,30.09,NE,54,1.0,7.0,77,0.00,,,0.02,Wunderground v.1.15,2013-08-18 18:24:00,
2013-08-18 14:29:00,72.7,64.3,30.09,SSE,152,1.0,7.0,75,0.00,,,0.02,Wunderground v.1.15,2013-08-18 18:29:00,
2013-08-18 14:35:00,73.0,64.6,30.09,SE,142,1.0,6.0,75,0.00,,,0.02,Wunderground v.1.15,2013-08-18 18:35:00,
2013-08-18 14:40:00,72.8,64.4,30.09,ENE,74,1.0,6.0,75,0.00,,,0.02,Wunderground v.1.15,2013-08-18 18:40:00,
2013-08-18 14:46:00,72.8,64.4,30.09,NE,49,0.0,6.0,75,0.00,,,0.02,Wunderground v.1.15,2013-08-18 18:46:00,
2013-08-18 14:52:00,72.8,64.4,30.09,ESE,107,1.0,6.0,75,0.00,,,0.02,Wunderground v.1.15,2013-08-18 18:52:00,
2013-08-18 14:58:00,72.7,65.1,30.09,NE,42,1.0,6.0,77,0.00,,,0.02,Wunderground v.1.15,2013-08-18 18:58:00,
2013-08-18 15:04:00,73.3,64.9,30.08,NE,45,1.0,6.0,75,0.00,,,0.02,Wunderground v.1.15,2013-08-18 19:04:00,
2013-08-18 15:09:00,73.9,64.7,30.08,ENE,59,1.0,6.0,73,0.00,,,0.02,Wunderground v.1.15,2013-08-18 19:09:00,
2013-08-18 15:15:00,73.3,64.1,30.08,NE,53,2.0,6.0,73,0.00,,,0.02,Wunderground v.1.15,2013-08-18 19:15:00,
2013-08-18 15:20:00,73.2,63.2,30.08,NE,41,2.0,6.0,71,0.00,,,0.02,Wunderground v.1.15,2013-08-18 19:20:00,
2013-08-18 15:26:00,73.0,64.2,30.08,East,84,1.0,6.0,74,0.00,,,0.02,Wunderground v.1.15,2013-08-18 19:26:00,
2013-08-18 15:32:00,72.5,63.7,30.07,NE,46,1.0,6.0,74,0.00,,,0.02,Wunderground v.1.15,2013-08-18 19:32:00,
2013-08-18 15:37:00,72.1,64.1,30.07,NE,45,1.0,6.0,76,0.00,,,0.02,Wunderground v.1.15,2013-08-18 19:37:00,
2013-08-18 15:43:00,71.6,63.6,30.07,NE,47,1.0,3.0,76,0.00,,,0.02,Wunderground v.1.15,2013-08-18 19:43:00,
2013-08-18 15:48:00,71.3,64.1,30.07,NE,46,1.0,6.0,78,0.00,,,0.02,Wunderground v.1.15,2013-08-18 19:48:00,
2013-08-18 15:53:00,71.1,63.9,30.07,SSE,157,0.0,6.0,78,0.00,,,0.02,Wunderground v.1.15,2013-08-18 19:53:00,
2013-08-18 15:59:00,70.9,64.4,30.07,NE,47,0.0,6.0,80,0.00,,,0.02,Wunderground v.1.15,2013-08-18 19:59:00,
2013-08-18 16:04:00,71.1,64.3,30.07,NE,45,1.0,7.0,79,0.00,,,0.02,Wunderground v.1.15,2013-08-18 20:04:00,
2013-08-18 16:11:00,71.1,64.3,30.07,NE,46,1.0,7.0,79,0.00,,,0.02,Wunderground v.1.15,2013-08-18 20:11:00,
2013-08-18 16:16:00,71.3,65.2,30.07,NE,55,1.0,7.0,81,0.00,,,0.02,Wunderground v.1.15,2013-08-18 20:16:00,
2013-08-18 16:22:00,71.8,65.7,30.07,ENE,76,1.0,1.0,81,0.00,,,0.02,Wunderground v.1.15,2013-08-18 20:22:00,
2013-08-18 16:28:00,72.1,65.6,30.07,East,96,0.0,7.0,80,0.00,,,0.02,Wunderground v.1.15,2013-08-18 20:28:00,
2013-08-18 16:33:00,72.0,65.1,30.07,NNE,32,0.0,5.0,79,0.00,,,0.02,Wunderground v.1.15,2013-08-18 20:33:00,
2013-08-18 16:39:00,71.8,65.3,30.07,SSE,152,1.0,5.0,80,0.00,,,0.02,Wunderground v.1.15,2013-08-18 20:39:00,
2013-08-18 16:45:00,72.0,65.5,30.07,NE,34,1.0,5.0,80,0.00,,,0.02,Wunderground v.1.15,2013-08-18 20:45:00,
2013-08-18 16:50:00,71.8,65.3,30.06,NE,52,1.0,5.0,80,0.00,,,0.02,Wunderground v.1.15,2013-08-18 20:50:00,
2013-08-18 16:55:00,71.6,65.5,30.06,NE,52,1.0,5.0,81,0.00,,,0.02,Wunderground v.1.15,2013-08-18 20:55:00,
2013-08-18 17:01:00,71.1,65.0,30.05,SE,144,0.0,5.0,81,0.00,,,0.02,Wunderground v.1.15,2013-08-18 21:01:00,
2013-08-18 17:06:00,71.1,66.0,30.05,NNE,24,0.0,9.0,84,0.00,,,0.02,Wunderground v.1.15,2013-08-18 21:06:00,
2013-08-18 17:12:00,71.5,66.1,30.05,ESE,104,0.0,9.0,83,0.00,,,0.02,Wunderground v.1.15,2013-08-18 21:12:00,
2013-08-18 17:17:00,71.1,65.7,30.05,South,184,0.0,9.0,83,0.00,,,0.02,Wunderground v.1.15,2013-08-18 21:17:00,
2013-08-18 17:23:00,70.8,65.4,30.05,South,183,0.0,9.0,83,0.00,,,0.02,Wunderground v.1.15,2013-08-18 21:23:00,
2013-08-18 17:28:00,70.4,65.3,30.05,East,92,0.0,9.0,84,0.00,,,0.02,Wunderground v.1.15,2013-08-18 21:28:00,
2013-08-18 17:34:00,70.1,64.7,30.05,East,93,0.0,5.0,83,0.00,,,0.02,Wunderground v.1.15,2013-08-18 21:34:00,
2013-08-18 17:40:00,69.9,65.2,30.05,East,93,0.0,5.0,85,0.00,,,0.02,Wunderground v.1.15,2013-08-18 21:40:00,
2013-08-18 17:46:00,69.8,64.7,30.06,East,92,0.0,5.0,84,0.00,,,0.02,Wunderground v.1.15,2013-08-18 21:46:00,
2013-08-18 17:52:00,69.6,64.2,30.06,East,92,0.0,5.0,83,0.00,,,0.02,Wunderground v.1.15,2013-08-18 21:52:00,
2013-08-18 17:58:00,69.6,64.5,30.06,East,92,0.0,5.0,84,0.00,,,0.02,Wunderground v.1.15,2013-08-18 21:58:00,
2013-08-18 18:03:00,69.6,65.2,30.06,ESE,122,0.0,3.0,86,0.00,,,0.02,Wunderground v.1.15,2013-08-18 22:03:00,
2013-08-18 18:09:00,69.4,65.4,30.06,ESE,122,0.0,3.0,87,0.00,,,0.02,Wunderground v.1.15,2013-08-18 22:09:00,
2013-08-18 18:15:00,69.4,65.7,30.06,ESE,122,0.0,3.0,88,0.00,,,0.02,Wunderground v.1.15,2013-08-18 22:15:00,
2013-08-18 18:21:00,69.4,65.7,30.06,SW,235,0.0,3.0,88,0.00,,,0.02,Wunderground v.1.15,2013-08-18 22:21:00,
2013-08-18 18:27:00,68.9,64.5,30.06,SW,217,0.0,3.0,86,0.00,,,0.02,Wunderground v.1.15,2013-08-18 22:27:00,
2013-08-18 18:32:00,68.8,64.1,30.06,SSW,213,0.0,4.0,85,0.00,,,0.02,Wunderground v.1.15,2013-08-18 22:32:00,
2013-08-18 18:38:00,68.6,64.2,30.06,SSW,213,0.0,4.0,86,0.00,,,0.02,Wunderground v.1.15,2013-08-18 22:38:00,
2013-08-18 18:43:00,68.4,64.4,30.06,SSW,213,0.0,4.0,87,0.00,,,0.02,Wunderground v.1.15,2013-08-18 22:43:00,
2013-08-18 18:49:00,68.4,64.7,30.06,SSW,213,0.0,4.0,88,0.00,,,0.02,Wunderground v.1.15,2013-08-18 22:49:00,
2013-08-18 18:54:00,68.4,64.4,30.06,SSW,213,0.0,4.0,87,0.00,,,0.02,Wunderground v.1.15,2013-08-18 22:54:00,
2013-08-18 19:00:00,68.4,64.0,30.06,SSW,213,0.0,4.0,86,0.00,,,0.02,Wunderground v.1.15,2013-08-18 23:00:00,
2013-08-18 19:05:00,68.3,63.9,30.06,SSW,213,0.0,0.0,86,0.00,,,0.02,Wunderground v.1.15,2013-08-18 23:05:00,
2013-08-18 19:11:00,68.3,63.9,30.06,SSW,213,0.0,0.0,86,0.00,,,0.02,Wunderground v.1.15,2013-08-18 23:11:00,
2013-08-18 19:16:00,68.1,64.1,30.06,SSW,213,0.0,0.0,87,0.00,,,0.02,Wunderground v.1.15,2013-08-18 23:16:00,
2013-08-18 19:22:00,67.9,63.2,30.06,WSW,250,0.0,1.0,85,0.00,,,0.02,Wunderground v.1.15,2013-08-18 23:22:00,
2013-08-18 19:27:00,67.9,63.2,30.06,WSW,250,0.0,1.0,85,0.00,,,0.02,Wunderground v.1.15,2013-08-18 23:27:00,
2013-08-18 19:33:00,67.9,63.6,30.07,WSW,250,0.0,2.0,86,0.00,,,0.02,Wunderground v.1.15,2013-08-18 23:33:00,
2013-08-18 19:38:00,67.8,64.1,30.07,WSW,250,0.0,2.0,88,0.00,,,0.02,Wunderground v.1.15,2013-08-18 23:38:00,
2013-08-18 19:44:00,67.6,63.6,30.07,WSW,250,0.0,2.0,87,0.00,,,0.02,Wunderground v.1.15,2013-08-18 23:44:00,
2013-08-18 19:49:00,67.4,63.7,30.07,WSW,250,0.0,2.0,88,0.00,,,0.02,Wunderground v.1.15,2013-08-18 23:49:00,
2013-08-18 19:55:00,67.3,63.3,30.07,WSW,250,0.0,2.0,87,0.00,,,0.02,Wunderground v.1.15,2013-08-18 23:55:00,
2013-08-18 20:00:00,67.1,63.4,30.08,WSW,250,0.0,2.0,88,0.00,,,0.02,Wunderground v.1.15,2013-08-19 00:00:00,
2013-08-18 20:07:00,66.9,63.6,30.08,WSW,250,0.0,1.0,89,0.00,,,0.02,Wunderground v.1.15,2013-08-19 00:07:00,
2013-08-18 20:12:00,66.8,63.5,30.08,WSW,250,0.0,1.0,89,0.00,,,0.02,Wunderground v.1.15,2013-08-19 00:12:00,
2013-08-18 20:18:00,66.6,63.6,30.08,WSW,250,0.0,1.0,90,0.00,,,0.02,Wunderground v.1.15,2013-08-19 00:18:00,
2013-08-18 20:25:00,66.4,63.4,30.08,WSW,250,0.0,1.0,90,0.00,,,0.02,Wunderground v.1.15,2013-08-19 00:25:00,
2013-08-18 20:30:00,66.4,63.7,30.09,WSW,250,0.0,1.0,91,0.00,,,0.02,Wunderground v.1.15,2013-08-19 00:30:00,
2013-08-18 20:36:00,66.3,63.6,30.09,WSW,250,0.0,0.0,91,0.00,,,0.02,Wunderground v.1.15,2013-08-19 00:36:00,
2013-08-18 20:41:00,66.1,63.4,30.09,WSW,250,0.0,0.0,91,0.00,,,0.02,Wunderground v.1.15,2013-08-19 00:41:00,
2013-08-18 20:48:00,66.1,63.4,30.09,WSW,250,0.0,0.0,91,0.00,,,0.02,Wunderground v.1.15,2013-08-19 00:48:00,
2013-08-18 20:53:00,66.0,63.6,30.09,WSW,250,0.0,0.0,92,0.00,,,0.02,Wunderground v.1.15,2013-08-19 00:53:00,
2013-08-18 21:00:00,66.0,63.6,30.09,WSW,250,0.0,0.0,92,0.00,,,0.02,Wunderground v.1.15,2013-08-19 01:00:00,
2013-08-18 21:05:00,66.0,63.6,30.09,WSW,250,0.0,0.0,92,0.00,,,0.02,Wunderground v.1.15,2013-08-19 01:05:00,
2013-08-18 21:11:00,65.8,63.4,30.09,WSW,250,0.0,0.0,92,0.00,,,0.02,Wunderground v.1.15,2013-08-19 01:11:00,
2013-08-18 21:16:00,65.8,63.7,30.09,WSW,250,0.0,0.0,93,0.00,,,0.02,Wunderground v.1.15,2013-08-19 01:16:00,
2013-08-18 21:22:00,65.8,63.7,30.09,WSW,250,0.0,0.0,93,0.00,,,0.02,Wunderground v.1.15,2013-08-19 01:22:00,
2013-08-18 21:28:00,65.6,63.5,30.09,WSW,250,0.0,0.0,93,0.00,,,0.02,Wunderground v.1.15,2013-08-19 01:28:00,
2013-08-18 21:34:00,65.6,63.5,30.10,WSW,250,0.0,0.0,93,0.00,,,0.02,Wunderground v.1.15,2013-08-19 01:34:00,
2013-08-18 21:40:00,65.6,63.8,30.10,WSW,250,0.0,0.0,94,0.00,,,0.02,Wunderground v.1.15,2013-08-19 01:40:00,
2013-08-18 21:45:00,65.5,63.7,30.11,WSW,250,0.0,0.0,94,0.00,,,0.02,Wunderground v.1.15,2013-08-19 01:45:00,
2013-08-18 21:51:00,65.5,63.7,30.11,WSW,250,0.0,0.0,94,0.00,,,0.02,Wunderground v.1.15,2013-08-19 01:51:00,
2013-08-18 21:56:00,65.5,63.7,30.11,WSW,250,0.0,0.0,94,0.00,,,0.02,Wunderground v.1.15,2013-08-19 01:56:00,
2013-08-18 22:02:00,65.3,63.5,30.11,WSW,250,0.0,0.0,94,0.00,,,0.02,Wunderground v.1.15,2013-08-19 02:02:00,
2013-08-18 22:07:00,65.3,63.5,30.11,WSW,250,0.0,0.0,94,0.00,,,0.02,Wunderground v.1.15,2013-08-19 02:07:00,
2013-08-18 22:13:00,65.3,63.5,30.11,WSW,250,0.0,0.0,94,0.00,,,0.02,Wunderground v.1.15,2013-08-19 02:13:00,
2013-08-18 22:18:00,65.3,63.8,30.12,WSW,250,0.0,0.0,95,0.00,,,0.02,Wunderground v.1.15,2013-08-19 02:18:00,
2013-08-18 22:25:00,65.2,63.7,30.12,WSW,250,0.0,0.0,95,0.00,,,0.02,Wunderground v.1.15,2013-08-19 02:25:00,
2013-08-18 22:30:00,65.2,63.7,30.12,WSW,250,0.0,0.0,95,0.00,,,0.02,Wunderground v.1.15,2013-08-19 02:30:00,
2013-08-18 22:35:00,65.2,63.7,30.12,WSW,250,0.0,0.0,95,0.00,,,0.02,Wunderground v.1.15,2013-08-19 02:35:00,
2013-08-18 22:41:00,65.0,63.5,30.12,WSW,250,0.0,0.0,95,0.00,,,0.02,Wunderground v.1.15,2013-08-19 02:41:00,
2013-08-18 22:47:00,65.0,63.5,30.12,WSW,250,0.0,0.0,95,0.00,,,0.02,Wunderground v.1.15,2013-08-19 02:47:00,
2013-08-18 22:53:00,65.0,63.5,30.12,WSW,250,0.0,0.0,95,0.00,,,0.02,Wunderground v.1.15,2013-08-19 02:53:00,
2013-08-18 22:58:00,65.0,63.8,30.12,WSW,250,0.0,0.0,96,0.00,,,0.03,Wunderground v.1.15,2013-08-19 02:58:00,
2013-08-18 23:03:00,65.0,63.8,30.12,WSW,250,0.0,0.0,96,0.00,,,0.03,Wunderground v.1.15,2013-08-19 03:03:00,
2013-08-18 23:09:00,65.0,63.8,30.12,WSW,250,0.0,0.0,96,0.00,,,0.03,Wunderground v.1.15,2013-08-19 03:09:00,
2013-08-18 23:14:00,65.0,63.8,30.12,WSW,250,0.0,0.0,96,0.00,,,0.03,Wunderground v.1.15,2013-08-19 03:14:00,
2013-08-18 23:20:00,65.0,63.8,30.12,WSW,250,0.0,0.0,96,0.00,,,0.04,Wunderground v.1.15,2013-08-19 03:20:00,
2013-08-18 23:26:00,65.2,64.0,30.12,WSW,250,0.0,0.0,96,0.09,,,0.05,Wunderground v.1.15,2013-08-19 03:26:00,
2013-08-18 23:32:00,65.2,64.0,30.11,WSW,250,0.0,1.0,96,0.09,,,0.05,Wunderground v.1.15,2013-08-19 03:32:00,
2013-08-18 23:37:00,65.0,63.8,30.11,WSW,250,0.0,1.0,96,0.05,,,0.05,Wunderground v.1.15,2013-08-19 03:37:00,
2013-08-18 23:43:00,65.0,63.8,30.11,WSW,250,0.0,1.0,96,0.00,,,0.05,Wunderground v.1.15,2013-08-19 03:43:00,
2013-08-18 23:49:00,65.0,63.8,30.11,WSW,250,0.0,1.0,96,0.00,,,0.06,Wunderground v.1.15,2013-08-19 03:49:00,
2013-08-18 23:54:00,65.0,63.8,30.11,NW,319,0.0,1.0,96,0.00,,,0.06,Wunderground v.1.15,2013-08-19 03:54:00,